Location: Clanezzo
(45.7500°N, 9.6000°E)
Time: 23:34:44
(UTC+00:00)

USA 308 - Pass Details

Date: 29 September 2021
Orbit: 566 x 573 km, 54.0° (Epoch: 23 September)

Event Time Altitude Azimuth Distance (km) Brightness Sun altitude
Rises 17:47:54 0° 302° (WNW) 2,771 7.7 -8.2°
Reaches altitude 10° 17:50:17 10° 310° (NW) 1,873 6.5 -8.6°
Maximum altitude 17:54:17 39° 20° (NNE) 866 3.7 -9.3°
Enters shadow 17:57:43 13° 87° (E) 1,665 4.6 -9.9°
